FW4407 Weather Reports


time (UTC)temp
C
wind
direction
speed
KPH
gust
KPH
rain 1hr
cm
rain 24hr
cm
rain mn
cm
humidity
%
barometer
mb
20260508044027 18 0.0 0.0 0.00 0.00 0.00 51 1016.8
20260508043052 18 0.0 0.0 0.00 0.00 0.00 50 1016.3
20260508042019 18 0.0 0.0 0.00 0.00 0.00 52 1016.2
20260508041025 18 0.0 0.0 0.00 0.00 0.00 53 1016.1
20260508040050 18 0.0 0.0 0.00 0.00 0.00 53 1016.0
20260508035017 18 0.0 0.0 0.00 0.00 0.00 54 1015.9
20260508034042 18 0.0 0.0 0.00 0.00 0.00 54 1015.9
20260508033028 18 0.0 0.0 0.00 0.00 0.00 54 1015.9
20260508032056 18 0.0 0.0 0.00 0.00 0.00 54 1015.9
20260508031020 17 0.0 0.0 0.00 0.00 0.00 52 1015.8
20260508030025 17 117 0.0 3.2 0.00 0.00 0.00 56 1015.8
20260508025031 17 0.0 0.0 0.00 0.00 0.00 58 1015.9
20260508024018 17 0.0 0.0 0.00 0.00 0.00 58 1015.9
20260508023043 17 0.0 0.0 0.00 0.00 0.00 59 1016.0
20260508022029 17 0.0 0.0 0.00 0.00 0.00 60 1015.9
20260508021016 17 0.0 0.0 0.00 0.00 0.00 61 1015.9
20260508020021 17 0.0 0.0 0.00 0.00 0.00 61 1016.0
20260508015026 17 0.0 0.0 0.00 0.00 0.00 61 1015.9
20260508014031 17 0.0 0.0 0.00 0.00 0.00 62 1016.2
20260508013019 17 0.0 0.0 0.00 0.00 0.00 63 1016.2
20260508012024 17 0.0 0.0 0.00 0.00 0.00 63 1016.2
20260508011030 17 0.0 0.0 0.00 0.00 0.00 63 1016.5
20260508010017 17 0.0 0.0 0.00 0.00 0.00 64 1016.5
20260508005023 17 0.0 0.0 0.00 0.00 0.00 64 1016.7
20260508004027 17 0.0 0.0 0.00 0.00 0.00 64 1016.6
20260508003016 17 0.0 0.0 0.00 0.00 0.00 64 1016.6
20260508002020 17 0.0 0.0 0.00 0.00 0.00 64 1016.8
20260508001025 17 0.0 0.0 0.00 0.00 0.00 64 1016.7
20260508000030 17 0.0 0.0 0.00 0.00 0.00 64 1016.9
20260507235038 17 0.0 0.0 0.00 0.00 0.00 64 1017.1
20260507234043 17 0.0 0.0 0.00 0.00 0.00 63 1017.3
20260507233028 17 0.0 0.0 0.00 0.00 0.00 62 1017.4
20260507232016 17 0.0 0.0 0.00 0.00 0.00 61 1017.3
20260507231021 17 0.0 0.0 0.00 0.00 0.00 61 1017.3
20260507230026 17 0.0 0.0 0.00 0.00 0.00 60 1017.5
20260507225031 18 0.0 0.0 0.00 0.00 0.00 60 1017.6
20260507224039 18 0.0 0.0 0.00 0.00 0.00 59 1017.6
20260507223024 18 0.0 0.0 0.00 0.00 0.00 58 1017.6
20260507222029 18 0.0 0.0 0.00 0.00 0.00 57 1017.6
20260507221018 18 0.0 0.0 0.00 0.00 0.00 56 1017.6
20260507220022 18 0.0 0.0 0.00 0.00 0.00 55 1017.7
20260507215017 18 0.0 0.0 0.00 0.00 0.00 54 1017.9
20260507214022 18 0.0 0.0 0.00 0.00 0.00 52 1017.9
20260507213047 18 278 0.0 3.2 0.00 0.00 0.00 51 1017.9
20260507212016 18 0.0 0.0 0.00 0.00 0.00 51 1018.2
20260507211020 18 0.0 0.0 0.00 0.00 0.00 50 1018.3
20260507210025 18 0.0 0.0 0.00 0.00 0.00 50 1018.1
20260507205030 18 0.0 0.0 0.00 0.00 0.00 51 1018.1
20260507204038 18 0.0 0.0 0.00 0.00 0.00 51 1017.9
20260507203023 18 0.0 0.0 0.00 0.00 0.00 50 1017.9
20260507202033 18 0.0 0.0 0.00 0.00 0.00 50 1018.0
20260507201016 18 157 0.0 8.0 0.00 0.00 0.00 49 1017.9
20260507200021 18 0.0 0.0 0.00 0.00 0.00 48 1017.9
20260507195046 18 0.0 0.0 0.00 0.00 0.00 48 1018.0
20260507194031 19 132 1.6 8.0 0.00 0.00 0.00 47 1017.7
20260507193019 19 131 1.6 8.0 0.00 0.00 0.00 47 1017.8
20260507192024 19 0.0 0.0 0.00 0.00 0.00 48 1017.6
20260507191029 19 0.0 0.0 0.00 0.00 0.00 49 1017.7
20260507190017 19 0.0 0.0 0.00 0.00 0.00 49 1017.8
20260507185022 19 0.0 0.0 0.00 0.00 0.00 50 1017.9
20260507184027 19 0.0 0.0 0.00 0.00 0.00 49 1017.7
20260507183015 20 0.0 0.0 0.00 0.00 0.00 49 1017.6
20260507182040 20 0.0 0.0 0.00 0.00 0.00 49 1017.6
20260507181045 20 0.0 0.0 0.00 0.00 0.00 47 1017.5
20260507180030 20 0.0 0.0 0.00 0.00 0.00 47 1017.5
20260507175038 20 290 0.0 3.2 0.00 0.00 0.00 46 1017.3
20260507174043 20 15 0.0 3.2 0.00 0.00 0.00 46 1017.5
20260507173048 21 0.0 0.0 0.00 0.00 0.00 47 1017.5
20260507172016 21 0.0 0.0 0.00 0.00 0.00 46 1017.5
20260507171021 21 210 0.0 3.2 0.00 0.00 0.00 36 1017.1
20260507170026 21 0.0 0.0 0.00 0.00 0.00 37 1016.9
20260507165031 22 0.0 0.0 0.00 0.00 0.00 36 1016.8
20260507164039 22 0.0 0.0 0.00 0.00 0.00 36 1016.7
20260507163024 22 185 0.0 8.0 0.00 0.00 0.00 35 1016.8
20260507162029 22 251 0.0 8.0 0.00 0.00 0.00 34 1016.9
20260507161017 22 235 0.0 3.2 0.00 0.00 0.00 34 1017.0
20260507160022 23 254 1.6 8.0 0.00 0.00 0.00 35 1016.9
20260507155027 23 230 0.0 8.0 0.00 0.00 0.00 35 1017.0
20260507154015 23 253 1.6 12.9 0.00 0.00 0.00 33 1017.1
20260507153020 24 244 4.8 16.1 0.00 0.00 0.00 32 1017.3
20260507152025 24 224 3.2 12.9 0.00 0.00 0.00 32 1017.5
20260507151030 24 240 1.6 12.9 0.00 0.00 0.00 32 1017.2
20260507150018 24 253 1.6 16.1 0.00 0.00 0.00 32 1017.4
20260507145023 24 254 1.6 16.1 0.00 0.00 0.00 32 1017.2
20260507144028 24 223 3.2 12.9 0.00 0.00 0.00 32 1017.3
20260507143016 25 240 4.8 16.1 0.00 0.00 0.00 32 1017.3
20260507142021 25 240 4.8 16.1 0.00 0.00 0.00 31 1017.2
20260507141046 25 240 4.8 16.1 0.00 0.00 0.00 30 1017.1
20260507140031 26 237 4.8 16.1 0.00 0.00 0.00 29 1016.9
20260507135019 26 229 4.8 16.1 0.00 0.00 0.00 29 1016.9
20260507134024 25 236 4.8 16.1 0.00 0.00 0.00 29 1016.8
20260507133029 25 237 1.6 12.9 0.00 0.00 0.00 30 1016.8
20260507132017 24 234 3.2 20.9 0.00 0.00 0.00 37 1016.8
20260507131042 23 278 1.6 12.9 0.00 0.00 0.00 41 1016.8
20260507130027 23 258 1.6 8.0 0.00 0.00 0.00 44 1017.1
20260507125015 24 269 3.2 12.9 0.00 0.00 0.00 44 1017.2
20260507124020 24 249 3.2 16.1 0.00 0.00 0.00 43 1017.2
20260507123045 25 245 3.2 12.9 0.00 0.00 0.00 45 1017.2
20260507122030 25 266 3.2 12.9 0.00 0.00 0.00 44 1017.5
20260507121018 25 258 3.2 16.1 0.00 0.00 0.00 43 1017.5
20260507120023 25 20 1.6 8.0 0.00 0.00 0.00 43 1017.5
20260507115028 25 270 3.2 16.1 0.00 0.00 0.00 46 1017.6
20260507114016 25 239 3.2 12.9 0.00 0.00 0.00 45 1017.6
20260507113041 25 244 3.2 12.9 0.00 0.00 0.00 44 1017.6
20260507112027 25 226 4.8 12.9 0.00 0.00 0.00 46 1017.9
20260507111031 25 283 4.8 16.1 0.00 0.00 0.00 49 1017.6
20260507110039 25 275 1.6 12.9 0.00 0.00 0.00 51 1017.6
20260507105024 25 245 4.8 16.1 0.00 0.00 0.00 49 1017.6
20260507104029 25 251 4.8 16.1 0.00 0.00 0.00 46 1017.6
20260507103037 25 243 0.0 12.9 0.00 0.00 0.00 46 1017.2
20260507102022 25 322 0.0 8.0 0.00 0.00 0.00 47 1017.3
20260507101027 25 229 4.8 20.9 0.00 0.00 0.00 43 1017.4
20260507100032 25 285 1.6 8.0 0.00 0.00 0.00 46 1017.3
20260507095020 25 247 3.2 16.1 0.00 0.00 0.00 44 1017.3
20260507094025 25 240 3.2 12.9 0.00 0.00 0.00 41 1017.2
20260507093030 25 243 3.2 12.9 0.00 0.00 0.00 40 1017.3
20260507092018 25 322 3.2 12.9 0.00 0.00 0.00 41 1017.2
20260507091023 25 297 1.6 12.9 0.00 0.00 0.00 40 1017.3
20260507090047 25 181 1.6 12.9 0.00 0.00 0.00 41 1017.2
20260507085015 25 257 1.6 8.0 0.00 0.00 0.00 41 1017.2
20260507084021 25 273 0.0 3.2 0.00 0.00 0.00 40 1017.3
20260507083026 24 273 0.0 3.2 0.00 0.00 0.00 40 1017.3
20260507082051 24 236 1.6 8.0 0.00 0.00 0.00 41 1017.3
20260507081039 23 232 3.2 12.9 0.00 0.00 0.00 43 1017.3
20260507080024 23 273 0.0 8.0 0.00 0.00 0.00 42 1017.4
20260507075028 23 266 1.6 8.0 0.00 0.00 0.00 44 1017.3
20260507074017 23 227 1.6 3.2 0.00 0.00 0.00 45 1017.1
20260507073530 23 0.0 0.0 0.00 0.00 0.00 45 1016.9
20260507072519 23 0.0 0.0 0.00 0.00 0.00 44 1016.9
20260507071523 23 230 1.6 8.0 0.00 0.00 0.00 45 1017.0
20260507070549 23 222 0.0 3.2 0.00 0.00 0.00 45 1017.2
20260507065516 22 235 1.6 8.0 0.00 0.00 0.00 46 1017.2
20260507064522 23 251 3.2 12.9 0.00 0.00 0.00 46 1017.0
20260507063526 22 0.0 0.0 0.00 0.00 0.00 47 1016.9
20260507062531 22 254 1.6 8.0 0.00 0.00 0.00 46 1016.9
20260507061519 21 0.0 0.0 0.00 0.00 0.00 44 1016.9
20260507060524 20 0.0 0.0 0.00 0.00 0.00 47 1016.8
20260507055529 20 0.0 0.0 0.00 0.00 0.00 50 1016.5
20260507054518 20 0.0 0.0 0.00 0.00 0.00 52 1016.5
20260507053523 20 8 0.0 3.2 0.00 0.00 0.00 51 1016.2
20260507052527 19 0.0 0.0 0.00 0.00 0.00 52 1016.2
20260507051516 18 116 0.0 3.2 0.00 0.00 0.00 53 1016.1
20260507050521 17 150 0.0 3.2 0.00 0.00 0.00 54 1016.2
20260507045547 16 0.0 0.0 0.00 0.00 0.00 57 1016.3
20260507044530 16 16 1.6 8.0 0.00 0.00 0.00 59 1016.1